Time,TemperatureF,DewpointF,PressureIn,WindDirection,WindDirectionDegrees,WindSpeedMPH,WindSpeedGustMPH,Humidity,HourlyPrecipIn,Conditions,Clouds,dailyrainin,SoftwareType,DateUTC
2013-01-15 00:01:00,11.5,6.4,30.43,North,0,0.0,0.0,80,0.00,,,0.00,WUHU21623XXSP,2013-01-15 06:01:00,
2013-01-15 00:06:00,11.5,6.4,30.42,North,0,0.0,0.0,80,0.00,,,0.00,WUHU21623XXSP,2013-01-15 06:06:00,
2013-01-15 00:11:00,11.3,6.3,30.42,North,0,0.0,0.0,80,0.00,,,0.00,WUHU21623XXSP,2013-01-15 06:11:00,
2013-01-15 00:16:00,11.1,6.1,30.42,North,0,0.0,0.0,80,0.00,,,0.00,WUHU21623XXSP,2013-01-15 06:16:00,
2013-01-15 00:21:00,11.1,6.1,30.42,North,0,0.0,0.0,80,0.00,,,0.00,WUHU21623XXSP,2013-01-15 06:21:00,
2013-01-15 00:26:00,11.1,6.1,30.41,North,0,0.0,0.0,80,0.00,,,0.00,WUHU21623XXSP,2013-01-15 06:26:00,
2013-01-15 00:31:00,11.1,6.1,30.41,North,0,0.0,0.0,80,0.00,,,0.00,WUHU21623XXSP,2013-01-15 06:31:00,
2013-01-15 00:36:00,10.9,6.1,30.42,North,0,0.0,0.0,80,0.00,,,0.00,WUHU21623XXSP,2013-01-15 06:36:00,
2013-01-15 00:41:00,10.9,5.9,30.42,North,0,0.0,0.0,80,0.00,,,0.00,WUHU21623XXSP,2013-01-15 06:41:00,
2013-01-15 00:47:00,10.9,5.9,30.42,North,0,0.0,0.0,80,0.00,,,0.00,WUHU21623XXSP,2013-01-15 06:47:00,
2013-01-15 00:52:00,10.8,5.9,30.42,North,0,0.0,0.0,80,0.00,,,0.00,WUHU21623XXSP,2013-01-15 06:52:00,
2013-01-15 00:57:00,10.8,5.7,30.41,North,0,0.0,0.0,80,0.00,,,0.00,WUHU21623XXSP,2013-01-15 06:57:00,
2013-01-15 01:02:00,10.6,5.5,30.41,North,0,0.0,0.0,80,0.00,,,0.00,WUHU21623XXSP,2013-01-15 07:02:00,
2013-01-15 01:07:00,10.6,5.5,30.41,North,0,0.0,0.0,80,0.00,,,0.00,WUHU21623XXSP,2013-01-15 07:07:00,
2013-01-15 01:12:00,10.6,5.5,30.42,North,0,0.0,0.0,80,0.00,,,0.00,WUHU21623XXSP,2013-01-15 07:12:00,
2013-01-15 01:17:00,10.6,5.5,30.42,North,0,0.0,0.0,80,0.00,,,0.00,WUHU21623XXSP,2013-01-15 07:17:00,
2013-01-15 01:22:00,10.2,5.4,30.42,North,0,0.0,0.0,81,0.00,,,0.00,WUHU21623XXSP,2013-01-15 07:22:00,
2013-01-15 01:27:00,10.2,5.4,30.41,North,0,0.0,0.0,81,0.00,,,0.00,WUHU21623XXSP,2013-01-15 07:27:00,
2013-01-15 01:32:00,10.2,5.6,30.41,North,0,0.0,0.0,81,0.00,,,0.00,WUHU21623XXSP,2013-01-15 07:32:00,
2013-01-15 01:37:00,10.2,5.4,30.42,North,0,0.0,0.0,81,0.00,,,0.00,WUHU21623XXSP,2013-01-15 07:37:00,
2013-01-15 01:42:00,10.2,5.4,30.41,North,0,0.0,0.0,81,0.00,,,0.00,WUHU21623XXSP,2013-01-15 07:42:00,
2013-01-15 01:47:00,10.2,5.4,30.41,North,0,0.0,0.0,81,0.00,,,0.00,WUHU21623XXSP,2013-01-15 07:47:00,
2013-01-15 01:52:00,10.0,5.3,30.41,North,0,0.0,0.0,81,0.00,,,0.00,WUHU21623XXSP,2013-01-15 07:52:00,
2013-01-15 01:57:00,10.0,5.3,30.41,North,0,0.0,0.0,81,0.00,,,0.00,WUHU21623XXSP,2013-01-15 07:57:00,
2013-01-15 02:02:00,10.0,5.3,30.41,North,0,0.0,0.0,81,0.00,,,0.00,WUHU21623XXSP,2013-01-15 08:02:00,
2013-01-15 02:07:00,9.9,5.1,30.41,North,0,0.0,0.0,81,0.00,,,0.00,WUHU21623XXSP,2013-01-15 08:07:00,
2013-01-15 02:12:00,9.7,5.0,30.41,North,0,0.0,0.0,81,0.00,,,0.00,WUHU21623XXSP,2013-01-15 08:12:00,
2013-01-15 02:17:00,9.7,5.0,30.40,North,0,0.0,0.0,81,0.00,,,0.00,WUHU21623XXSP,2013-01-15 08:17:00,
2013-01-15 02:22:00,9.7,5.0,30.40,North,0,0.0,0.0,81,0.00,,,0.00,WUHU21623XXSP,2013-01-15 08:22:00,
2013-01-15 02:27:00,9.7,5.0,30.40,North,0,0.0,0.0,81,0.00,,,0.00,WUHU21623XXSP,2013-01-15 08:27:00,
2013-01-15 02:32:00,9.7,5.0,30.39,North,0,0.0,0.0,81,0.00,,,0.00,WUHU21623XXSP,2013-01-15 08:32:00,
2013-01-15 02:37:00,9.7,5.0,30.39,North,0,0.0,0.0,81,0.00,,,0.00,WUHU21623XXSP,2013-01-15 08:37:00,
2013-01-15 02:42:00,9.7,5.0,30.39,North,0,0.0,0.0,81,0.00,,,0.00,WUHU21623XXSP,2013-01-15 08:42:00,
2013-01-15 02:47:00,9.7,5.0,30.39,North,0,0.0,0.0,81,0.00,,,0.00,WUHU21623XXSP,2013-01-15 08:47:00,
2013-01-15 02:52:00,9.7,5.0,30.39,North,0,0.0,0.0,81,0.00,,,0.00,WUHU21623XXSP,2013-01-15 08:52:00,
2013-01-15 02:57:00,9.7,5.0,30.39,North,0,0.0,0.0,81,0.00,,,0.00,WUHU21623XXSP,2013-01-15 08:57:00,
2013-01-15 03:02:00,9.7,5.0,30.40,North,0,0.0,0.0,81,0.00,,,0.00,WUHU21623XXSP,2013-01-15 09:02:00,
2013-01-15 03:07:00,9.5,4.8,30.40,North,0,0.0,0.0,81,0.00,,,0.00,WUHU21623XXSP,2013-01-15 09:07:00,
2013-01-15 03:12:00,9.5,4.8,30.40,North,0,0.0,0.0,81,0.00,,,0.00,WUHU21623XXSP,2013-01-15 09:12:00,
2013-01-15 03:17:00,9.3,4.6,30.40,North,0,0.0,0.0,81,0.00,,,0.00,WUHU21623XXSP,2013-01-15 09:17:00,
2013-01-15 03:22:00,9.3,4.6,30.40,North,0,0.0,0.0,81,0.00,,,0.00,WUHU21623XXSP,2013-01-15 09:22:00,
2013-01-15 03:27:00,9.3,4.6,30.40,North,0,0.0,0.0,81,0.00,,,0.00,WUHU21623XXSP,2013-01-15 09:27:00,
2013-01-15 03:32:00,9.3,4.6,30.39,North,0,0.0,0.0,82,0.00,,,0.00,WUHU21623XXSP,2013-01-15 09:32:00,
2013-01-15 03:37:00,9.3,4.9,30.39,North,0,0.0,0.0,82,0.00,,,0.00,WUHU21623XXSP,2013-01-15 09:37:00,
2013-01-15 03:42:00,9.3,4.9,30.39,North,0,0.0,0.0,82,0.00,,,0.00,WUHU21623XXSP,2013-01-15 09:42:00,
2013-01-15 03:47:00,9.1,4.7,30.38,North,0,0.0,0.0,82,0.00,,,0.00,WUHU21623XXSP,2013-01-15 09:47:00,
2013-01-15 03:52:00,9.1,4.7,30.38,North,0,0.0,0.0,82,0.00,,,0.00,WUHU21623XXSP,2013-01-15 09:52:00,
2013-01-15 03:57:00,9.1,4.7,30.38,North,0,0.0,0.0,82,0.00,,,0.00,WUHU21623XXSP,2013-01-15 09:57:00,
2013-01-15 04:02:00,9.0,4.6,30.38,North,0,0.0,0.0,82,0.00,,,0.00,WUHU21623XXSP,2013-01-15 10:02:00,
2013-01-15 04:07:00,9.0,4.6,30.38,North,0,0.0,0.0,82,0.00,,,0.00,WUHU21623XXSP,2013-01-15 10:07:00,
2013-01-15 04:12:00,9.0,4.6,30.38,North,0,0.0,0.0,82,0.00,,,0.00,WUHU21623XXSP,2013-01-15 10:12:00,
2013-01-15 04:17:00,9.0,4.6,30.37,North,0,0.0,0.0,82,0.00,,,0.00,WUHU21623XXSP,2013-01-15 10:17:00,
2013-01-15 04:22:00,9.0,4.6,30.37,North,0,0.0,0.0,82,0.00,,,0.00,WUHU21623XXSP,2013-01-15 10:22:00,
2013-01-15 04:27:00,9.0,4.6,30.37,North,0,0.0,0.0,82,0.00,,,0.00,WUHU21623XXSP,2013-01-15 10:27:00,
2013-01-15 04:32:00,9.1,4.7,30.37,North,0,0.0,0.0,82,0.00,,,0.00,WUHU21623XXSP,2013-01-15 10:32:00,
2013-01-15 04:37:00,9.0,4.6,30.38,North,0,0.0,0.0,82,0.00,,,0.00,WUHU21623XXSP,2013-01-15 10:37:00,
2013-01-15 04:42:00,9.0,4.6,30.37,North,0,0.0,0.0,82,0.00,,,0.00,WUHU21623XXSP,2013-01-15 10:42:00,
2013-01-15 04:47:00,8.8,4.6,30.37,North,0,0.0,0.0,82,0.00,,,0.00,WUHU21623XXSP,2013-01-15 10:47:00,
2013-01-15 04:52:00,8.8,4.4,30.38,North,0,0.0,0.0,82,0.00,,,0.00,WUHU21623XXSP,2013-01-15 10:52:00,
2013-01-15 04:57:00,8.8,4.4,30.38,North,0,0.0,0.0,82,0.00,,,0.00,WUHU21623XXSP,2013-01-15 10:57:00,
2013-01-15 05:02:00,8.8,4.4,30.38,North,0,0.0,0.0,82,0.00,,,0.00,WUHU21623XXSP,2013-01-15 11:02:00,
2013-01-15 05:07:00,8.8,4.4,30.38,North,0,0.0,0.0,82,0.00,,,0.00,WUHU21623XXSP,2013-01-15 11:07:00,
2013-01-15 05:12:00,8.6,4.4,30.38,North,0,0.0,0.0,82,0.00,,,0.00,WUHU21623XXSP,2013-01-15 11:12:00,
2013-01-15 05:17:00,8.6,4.2,30.38,North,0,0.0,0.0,82,0.00,,,0.00,WUHU21623XXSP,2013-01-15 11:17:00,
2013-01-15 05:22:00,8.4,4.1,30.38,North,0,0.0,0.0,82,0.00,,,0.00,WUHU21623XXSP,2013-01-15 11:22:00,
2013-01-15 05:27:00,8.4,4.1,30.37,North,0,0.0,0.0,82,0.00,,,0.00,WUHU21623XXSP,2013-01-15 11:27:00,
2013-01-15 05:32:00,8.4,4.1,30.37,North,0,0.0,0.0,82,0.00,,,0.00,WUHU21623XXSP,2013-01-15 11:32:00,
2013-01-15 05:38:00,8.2,3.9,30.37,North,0,0.0,0.0,82,0.00,,,0.00,WUHU21623XXSP,2013-01-15 11:38:00,
2013-01-15 05:43:00,8.2,3.9,30.37,North,0,0.0,0.0,82,0.00,,,0.00,WUHU21623XXSP,2013-01-15 11:43:00,
2013-01-15 05:48:00,8.1,3.7,30.37,North,0,0.0,0.0,82,0.00,,,0.00,WUHU21623XXSP,2013-01-15 11:48:00,
2013-01-15 05:53:00,8.1,3.7,30.38,North,0,0.0,0.0,82,0.00,,,0.00,WUHU21623XXSP,2013-01-15 11:53:00,
2013-01-15 05:58:00,7.9,3.7,30.38,North,0,0.0,0.0,82,0.00,,,0.00,WUHU21623XXSP,2013-01-15 11:58:00,
2013-01-15 06:03:00,7.9,3.5,30.38,North,0,0.0,0.0,82,0.00,,,0.00,WUHU21623XXSP,2013-01-15 12:03:00,
2013-01-15 06:08:00,8.1,3.7,30.38,North,0,0.0,0.0,82,0.00,,,0.00,WUHU21623XXSP,2013-01-15 12:08:00,
2013-01-15 06:13:00,8.1,3.7,30.38,North,0,0.0,0.0,82,0.00,,,0.00,WUHU21623XXSP,2013-01-15 12:13:00,
2013-01-15 06:18:00,8.2,3.9,30.39,North,0,0.0,0.0,82,0.00,,,0.00,WUHU21623XXSP,2013-01-15 12:18:00,
2013-01-15 06:23:00,8.2,3.9,30.39,North,0,0.0,0.0,82,0.00,,,0.00,WUHU21623XXSP,2013-01-15 12:23:00,
2013-01-15 06:28:00,8.2,3.9,30.38,North,0,0.0,0.0,82,0.00,,,0.00,WUHU21623XXSP,2013-01-15 12:28:00,
2013-01-15 06:33:00,8.4,4.1,30.39,North,0,0.0,0.0,82,0.00,,,0.00,WUHU21623XXSP,2013-01-15 12:33:00,
2013-01-15 06:38:00,8.2,3.9,30.39,North,0,0.0,0.0,82,0.00,,,0.00,WUHU21623XXSP,2013-01-15 12:38:00,
2013-01-15 06:43:00,8.2,3.9,30.40,North,0,0.0,0.0,82,0.00,,,0.00,WUHU21623XXSP,2013-01-15 12:43:00,
2013-01-15 06:48:00,8.2,3.9,30.39,North,0,0.0,0.0,82,0.00,,,0.00,WUHU21623XXSP,2013-01-15 12:48:00,
2013-01-15 06:53:00,8.2,3.9,30.39,North,0,0.0,0.0,82,0.00,,,0.00,WUHU21623XXSP,2013-01-15 12:53:00,
2013-01-15 06:58:00,8.2,3.9,30.39,North,0,0.0,0.0,82,0.00,,,0.00,WUHU21623XXSP,2013-01-15 12:58:00,
2013-01-15 07:03:00,8.4,3.9,30.40,North,0,0.0,0.0,82,0.00,,,0.00,WUHU21623XXSP,2013-01-15 13:03:00,
2013-01-15 07:08:00,8.2,3.9,30.40,North,0,0.0,0.0,82,0.00,,,0.00,WUHU21623XXSP,2013-01-15 13:08:00,
2013-01-15 07:13:00,8.2,3.9,30.40,North,0,0.0,0.0,82,0.00,,,0.00,WUHU21623XXSP,2013-01-15 13:13:00,
2013-01-15 07:18:00,8.2,3.9,30.39,North,0,0.0,0.0,82,0.00,,,0.00,WUHU21623XXSP,2013-01-15 13:18:00,
2013-01-15 07:23:00,8.2,3.9,30.40,North,0,0.0,0.0,82,0.00,,,0.00,WUHU21623XXSP,2013-01-15 13:23:00,
2013-01-15 07:28:00,8.1,3.7,30.41,North,0,0.0,0.0,82,0.00,,,0.00,WUHU21623XXSP,2013-01-15 13:28:00,
2013-01-15 07:33:00,8.2,3.9,30.41,North,0,0.0,0.0,82,0.00,,,0.00,WUHU21623XXSP,2013-01-15 13:33:00,
2013-01-15 07:38:00,8.1,3.9,30.41,North,0,0.0,0.0,82,0.00,,,0.00,WUHU21623XXSP,2013-01-15 13:38:00,
2013-01-15 07:43:00,8.2,3.7,30.41,North,0,0.0,0.0,82,0.00,,,0.00,WUHU21623XXSP,2013-01-15 13:43:00,
2013-01-15 07:48:00,8.2,3.9,30.41,North,0,0.0,0.0,82,0.00,,,0.00,WUHU21623XXSP,2013-01-15 13:48:00,
2013-01-15 07:53:00,8.2,3.9,30.41,North,0,0.0,0.0,82,0.00,,,0.00,WUHU21623XXSP,2013-01-15 13:53:00,
2013-01-15 07:58:00,8.2,3.9,30.41,North,0,0.0,0.0,82,0.00,,,0.00,WUHU21623XXSP,2013-01-15 13:58:00,
2013-01-15 08:03:00,8.4,4.1,30.41,North,0,0.0,0.0,82,0.00,,,0.00,WUHU21623XXSP,2013-01-15 14:03:00,
2013-01-15 08:08:00,8.4,4.3,30.40,North,0,0.0,0.0,83,0.00,,,0.00,WUHU21623XXSP,2013-01-15 14:08:00,
2013-01-15 08:13:00,8.8,4.7,30.41,North,0,0.0,0.0,83,0.00,,,0.00,WUHU21623XXSP,2013-01-15 14:13:00,
2013-01-15 08:18:00,9.1,5.0,30.40,North,0,0.0,0.0,83,0.00,,,0.00,WUHU21623XXSP,2013-01-15 14:18:00,
2013-01-15 08:23:00,9.3,5.2,30.41,North,0,0.0,0.0,83,0.00,,,0.00,WUHU21623XXSP,2013-01-15 14:23:00,
2013-01-15 08:28:00,9.9,5.7,30.40,North,0,0.0,0.0,83,0.00,,,0.00,WUHU21623XXSP,2013-01-15 14:28:00,
2013-01-15 08:33:00,10.2,6.0,30.40,North,0,0.0,0.0,83,0.00,,,0.00,WUHU21623XXSP,2013-01-15 14:33:00,
2013-01-15 08:38:00,10.8,6.5,30.40,North,0,0.0,0.0,83,0.00,,,0.00,WUHU21623XXSP,2013-01-15 14:38:00,
2013-01-15 08:43:00,11.3,7.1,30.40,North,0,0.0,0.0,83,0.00,,,0.00,WUHU21623XXSP,2013-01-15 14:43:00,
2013-01-15 08:48:00,11.8,7.6,30.40,North,0,0.0,0.0,83,0.00,,,0.00,WUHU21623XXSP,2013-01-15 14:48:00,
2013-01-15 08:53:00,12.4,7.8,30.39,North,0,0.0,0.0,83,0.00,,,0.00,WUHU21623XXSP,2013-01-15 14:53:00,
2013-01-15 08:58:00,13.3,9.1,30.38,North,0,0.0,0.0,83,0.00,,,0.00,WUHU21623XXSP,2013-01-15 14:58:00,
2013-01-15 09:03:00,13.8,9.9,30.38,North,0,0.0,0.0,84,0.00,,,0.00,WUHU21623XXSP,2013-01-15 15:03:00,
2013-01-15 09:08:00,14.7,10.7,30.37,North,0,0.0,0.0,84,0.00,,,0.00,WUHU21623XXSP,2013-01-15 15:08:00,
2013-01-15 09:13:00,16.0,11.9,30.37,North,0,0.0,0.0,84,0.00,,,0.00,WUHU21623XXSP,2013-01-15 15:13:00,
2013-01-15 09:18:00,16.7,12.6,30.37,North,0,0.0,0.0,84,0.00,,,0.00,WUHU21623XXSP,2013-01-15 15:18:00,
2013-01-15 09:23:00,17.4,13.3,30.37,North,0,0.0,0.0,84,0.00,,,0.00,WUHU21623XXSP,2013-01-15 15:23:00,
2013-01-15 09:28:00,18.7,14.5,30.37,North,0,0.0,0.0,84,0.00,,,0.00,WUHU21623XXSP,2013-01-15 15:28:00,
2013-01-15 09:33:00,19.2,15.1,30.37,North,0,0.0,0.0,84,0.00,,,0.00,WUHU21623XXSP,2013-01-15 15:33:00,
2013-01-15 09:38:00,19.8,15.3,30.38,North,0,0.0,0.0,83,0.00,,,0.00,WUHU21623XXSP,2013-01-15 15:38:00,
2013-01-15 09:43:00,20.3,15.9,30.37,North,0,0.0,0.0,83,0.00,,,0.00,WUHU21623XXSP,2013-01-15 15:43:00,
2013-01-15 09:48:00,20.8,16.1,30.37,North,0,0.0,0.0,83,0.00,,,0.00,WUHU21623XXSP,2013-01-15 15:48:00,
2013-01-15 09:53:00,21.4,16.7,30.37,North,0,0.0,0.0,82,0.00,,,0.00,WUHU21623XXSP,2013-01-15 15:53:00,
2013-01-15 09:58:00,22.1,17.4,30.37,North,0,0.0,0.0,82,0.00,,,0.00,WUHU21623XXSP,2013-01-15 15:58:00,
2013-01-15 10:03:00,22.6,17.7,30.37,North,0,0.0,0.0,81,0.00,,,0.00,WUHU21623XXSP,2013-01-15 16:03:00,
2013-01-15 10:08:00,22.8,17.6,30.37,North,0,0.0,0.0,80,0.00,,,0.00,WUHU21623XXSP,2013-01-15 16:08:00,
2013-01-15 10:13:00,23.4,17.8,30.36,North,0,0.0,0.0,79,0.00,,,0.00,WUHU21623XXSP,2013-01-15 16:13:00,
2013-01-15 10:18:00,23.7,18.2,30.36,North,0,0.0,0.0,79,0.00,,,0.00,WUHU21623XXSP,2013-01-15 16:18:00,
2013-01-15 10:23:00,24.1,18.5,30.38,North,0,0.0,0.0,79,0.00,,,0.00,WUHU21623XXSP,2013-01-15 16:23:00,
2013-01-15 10:28:00,24.4,18.2,30.37,North,0,0.0,0.0,77,0.00,,,0.00,WUHU21623XXSP,2013-01-15 16:28:00,
2013-01-15 10:33:00,24.6,18.4,30.37,North,0,0.0,0.0,77,0.00,,,0.00,WUHU21623XXSP,2013-01-15 16:33:00,
2013-01-15 10:38:00,24.6,18.1,30.37,North,0,0.0,0.0,76,0.00,,,0.00,WUHU21623XXSP,2013-01-15 16:38:00,
2013-01-15 10:43:00,24.6,17.8,30.37,North,0,0.0,0.0,75,0.00,,,0.00,WUHU21623XXSP,2013-01-15 16:43:00,
2013-01-15 10:48:00,24.6,17.8,30.38,North,0,0.0,0.0,75,0.00,,,0.00,WUHU21623XXSP,2013-01-15 16:48:00,
2013-01-15 10:53:00,25.0,18.1,30.37,North,0,0.0,0.0,75,0.00,,,0.00,WUHU21623XXSP,2013-01-15 16:53:00,
2013-01-15 10:58:00,25.5,18.5,30.38,North,0,0.0,0.0,75,0.00,,,0.00,WUHU21623XXSP,2013-01-15 16:58:00,
2013-01-15 11:03:00,25.9,18.7,30.38,North,0,0.0,0.0,74,0.00,,,0.00,WUHU21623XXSP,2013-01-15 17:03:00,
2013-01-15 11:08:00,26.2,19.0,30.38,North,0,0.0,0.0,74,0.00,,,0.00,WUHU21623XXSP,2013-01-15 17:08:00,
2013-01-15 11:13:00,26.4,19.2,30.38,North,0,0.0,0.0,74,0.00,,,0.00,WUHU21623XXSP,2013-01-15 17:13:00,
2013-01-15 11:18:00,26.4,18.9,30.37,North,0,0.0,0.0,73,0.00,,,0.00,WUHU21623XXSP,2013-01-15 17:18:00,
2013-01-15 11:23:00,26.6,19.1,30.37,North,0,0.0,0.0,73,0.00,,,0.00,WUHU21623XXSP,2013-01-15 17:23:00,
2013-01-15 11:28:00,26.4,18.9,30.36,North,0,0.0,0.0,73,0.00,,,0.00,WUHU21623XXSP,2013-01-15 17:28:00,
2013-01-15 11:33:00,26.6,19.1,30.37,North,0,0.0,0.0,73,0.00,,,0.00,WUHU21623XXSP,2013-01-15 17:33:00,
2013-01-15 11:38:00,27.0,19.4,30.37,North,0,0.0,0.0,73,0.00,,,0.00,WUHU21623XXSP,2013-01-15 17:38:00,
2013-01-15 11:43:00,27.0,19.1,30.36,North,0,0.0,0.0,72,0.00,,,0.00,WUHU21623XXSP,2013-01-15 17:43:00,
2013-01-15 11:48:00,27.1,19.0,30.36,North,0,0.0,0.0,71,0.00,,,0.00,WUHU21623XXSP,2013-01-15 17:48:00,
2013-01-15 11:53:00,27.5,19.3,30.35,North,0,0.0,0.0,71,0.00,,,0.00,WUHU21623XXSP,2013-01-15 17:53:00,
2013-01-15 11:58:00,28.0,19.6,30.35,North,0,0.0,0.0,70,0.00,,,0.00,WUHU21623XXSP,2013-01-15 17:58:00,
2013-01-15 12:03:00,28.2,19.8,30.34,North,0,0.0,0.0,70,0.00,,,0.00,WUHU21623XXSP,2013-01-15 18:03:00,
2013-01-15 12:08:00,28.6,20.1,30.35,North,0,0.0,0.0,70,0.00,,,0.00,WUHU21623XXSP,2013-01-15 18:08:00,
2013-01-15 12:13:00,28.6,19.7,30.34,North,0,0.0,0.0,69,0.00,,,0.00,WUHU21623XXSP,2013-01-15 18:13:00,
2013-01-15 12:18:00,28.6,19.7,30.33,North,0,0.0,0.0,69,0.00,,,0.00,WUHU21623XXSP,2013-01-15 18:18:00,
2013-01-15 12:23:00,28.8,19.9,30.33,North,0,0.0,0.0,69,0.00,,,0.00,WUHU21623XXSP,2013-01-15 18:23:00,
2013-01-15 12:28:00,29.1,19.9,30.32,North,0,0.0,0.0,68,0.00,,,0.00,WUHU21623XXSP,2013-01-15 18:28:00,
2013-01-15 12:33:00,29.1,19.9,30.32,North,0,0.0,0.0,68,0.00,,,0.00,WUHU21623XXSP,2013-01-15 18:33:00,
2013-01-15 12:38:00,29.1,19.9,30.32,North,0,0.0,0.0,68,0.00,,,0.00,WUHU21623XXSP,2013-01-15 18:38:00,
2013-01-15 12:43:00,29.1,19.5,30.31,North,0,0.0,0.0,67,0.00,,,0.00,WUHU21623XXSP,2013-01-15 18:43:00,
2013-01-15 12:48:00,29.1,19.1,30.31,North,0,0.0,0.0,66,0.00,,,0.00,WUHU21623XXSP,2013-01-15 18:48:00,
2013-01-15 12:53:00,29.1,19.1,30.31,North,0,0.0,0.0,66,0.00,,,0.00,WUHU21623XXSP,2013-01-15 18:53:00,
2013-01-15 12:58:00,29.1,19.1,30.31,North,0,0.0,0.0,66,0.00,,,0.00,WUHU21623XXSP,2013-01-15 18:58:00,
2013-01-15 13:03:00,29.5,19.5,30.31,North,0,0.0,0.0,66,0.00,,,0.00,WUHU21623XXSP,2013-01-15 19:03:00,
2013-01-15 13:08:00,29.3,18.9,30.31,North,0,0.0,0.0,65,0.00,,,0.00,WUHU21623XXSP,2013-01-15 19:08:00,
2013-01-15 13:13:00,29.3,18.9,30.31,North,0,0.0,0.0,65,0.00,,,0.00,WUHU21623XXSP,2013-01-15 19:13:00,
2013-01-15 13:18:00,29.7,19.3,30.30,North,0,0.0,0.0,65,0.00,,,0.00,WUHU21623XXSP,2013-01-15 19:18:00,
2013-01-15 13:23:00,29.8,19.4,30.31,North,0,0.0,0.0,65,0.00,,,0.00,WUHU21623XXSP,2013-01-15 19:23:00,
2013-01-15 13:28:00,29.8,19.4,30.31,North,0,0.0,0.0,65,0.00,,,0.00,WUHU21623XXSP,2013-01-15 19:28:00,
2013-01-15 13:33:00,29.8,19.4,30.31,North,0,0.0,0.0,65,0.00,,,0.00,WUHU21623XXSP,2013-01-15 19:33:00,
2013-01-15 13:38:00,29.7,18.9,30.31,North,0,0.0,0.0,64,0.00,,,0.00,WUHU21623XXSP,2013-01-15 19:38:00,
2013-01-15 13:43:00,30.0,19.2,30.30,North,0,0.0,0.0,64,0.00,,,0.00,WUHU21623XXSP,2013-01-15 19:43:00,
2013-01-15 13:48:00,30.0,19.6,30.30,North,0,0.0,0.0,65,0.00,,,0.00,WUHU21623XXSP,2013-01-15 19:48:00,
2013-01-15 13:53:00,30.0,19.2,30.30,North,0,0.0,0.0,64,0.00,,,0.00,WUHU21623XXSP,2013-01-15 19:53:00,
2013-01-15 13:58:00,30.0,19.2,30.30,North,0,0.0,0.0,64,0.00,,,0.00,WUHU21623XXSP,2013-01-15 19:58:00,
2013-01-15 14:03:00,30.0,19.2,30.30,North,0,0.0,0.0,64,0.00,,,0.00,WUHU21623XXSP,2013-01-15 20:03:00,
2013-01-15 14:08:00,30.0,18.9,30.30,North,0,0.0,0.0,63,0.00,,,0.00,WUHU21623XXSP,2013-01-15 20:08:00,
2013-01-15 14:13:00,30.0,18.9,30.30,North,0,0.0,0.0,63,0.00,,,0.00,WUHU21623XXSP,2013-01-15 20:13:00,
2013-01-15 14:18:00,30.0,18.9,30.30,North,0,0.0,0.0,63,0.00,,,0.00,WUHU21623XXSP,2013-01-15 20:18:00,
2013-01-15 14:23:00,30.0,18.9,30.30,North,0,0.0,0.0,63,0.00,,,0.00,WUHU21623XXSP,2013-01-15 20:23:00,
2013-01-15 14:28:00,30.0,18.9,30.30,North,0,0.0,0.0,63,0.00,,,0.00,WUHU21623XXSP,2013-01-15 20:28:00,
2013-01-15 14:33:00,30.0,18.9,30.30,North,0,0.0,0.0,63,0.00,,,0.00,WUHU21623XXSP,2013-01-15 20:33:00,
2013-01-15 14:38:00,29.8,18.7,30.29,North,0,0.0,0.0,63,0.00,,,0.00,WUHU21623XXSP,2013-01-15 20:38:00,
2013-01-15 14:43:00,29.8,18.7,30.29,North,0,0.0,0.0,63,0.00,,,0.00,WUHU21623XXSP,2013-01-15 20:43:00,
2013-01-15 14:48:00,29.8,18.7,30.30,North,0,0.0,0.0,63,0.00,,,0.00,WUHU21623XXSP,2013-01-15 20:48:00,
2013-01-15 14:53:00,30.0,18.9,30.29,North,0,0.0,0.0,63,0.00,,,0.00,WUHU21623XXSP,2013-01-15 20:53:00,
2013-01-15 14:58:00,29.8,18.7,30.29,North,0,0.0,0.0,63,0.00,,,0.00,WUHU21623XXSP,2013-01-15 20:58:00,
2013-01-15 15:03:00,29.8,18.7,30.30,North,0,0.0,0.0,63,0.00,,,0.00,WUHU21623XXSP,2013-01-15 21:03:00,
2013-01-15 15:08:00,29.8,18.7,30.29,North,0,0.0,0.0,63,0.00,,,0.00,WUHU21623XXSP,2013-01-15 21:08:00,
2013-01-15 15:13:00,29.5,18.4,30.30,North,0,0.0,0.0,63,0.00,,,0.00,WUHU21623XXSP,2013-01-15 21:13:00,
2013-01-15 15:19:00,29.5,18.4,30.29,North,0,0.0,0.0,63,0.00,,,0.00,WUHU21623XXSP,2013-01-15 21:19:00,
2013-01-15 15:24:00,29.5,18.4,30.30,North,0,0.0,0.0,63,0.00,,,0.00,WUHU21623XXSP,2013-01-15 21:24:00,
2013-01-15 15:29:00,29.5,18.4,30.30,North,0,0.0,0.0,63,0.00,,,0.00,WUHU21623XXSP,2013-01-15 21:29:00,
2013-01-15 15:34:00,29.3,18.2,30.29,North,0,0.0,0.0,63,0.00,,,0.00,WUHU21623XXSP,2013-01-15 21:34:00,
2013-01-15 15:39:00,29.1,18.2,30.29,North,0,0.0,0.0,63,0.00,,,0.00,WUHU21623XXSP,2013-01-15 21:39:00,
2013-01-15 15:44:00,29.1,18.1,30.28,North,0,0.0,0.0,63,0.00,,,0.00,WUHU21623XXSP,2013-01-15 21:44:00,
2013-01-15 15:49:00,28.9,18.1,30.28,North,0,0.0,0.0,63,0.00,,,0.00,WUHU21623XXSP,2013-01-15 21:49:00,
2013-01-15 15:54:00,28.8,17.4,30.28,North,0,0.0,0.0,62,0.00,,,0.00,WUHU21623XXSP,2013-01-15 21:54:00,
2013-01-15 15:59:00,28.6,17.2,30.27,North,0,0.0,0.0,62,0.00,,,0.00,WUHU21623XXSP,2013-01-15 21:59:00,
2013-01-15 16:04:00,28.4,17.1,30.28,North,0,0.0,0.0,62,0.00,,,0.00,WUHU21623XXSP,2013-01-15 22:04:00,
2013-01-15 16:09:00,28.2,17.2,30.28,North,0,0.0,0.0,63,0.00,,,0.00,WUHU21623XXSP,2013-01-15 22:09:00,
2013-01-15 16:14:00,28.0,17.1,30.27,North,0,0.0,0.0,63,0.00,,,0.00,WUHU21623XXSP,2013-01-15 22:14:00,
2013-01-15 16:19:00,27.9,17.2,30.27,North,0,0.0,0.0,64,0.00,,,0.00,WUHU21623XXSP,2013-01-15 22:19:00,
2013-01-15 16:24:00,27.5,16.9,30.27,North,0,0.0,0.0,64,0.00,,,0.00,WUHU21623XXSP,2013-01-15 22:24:00,
2013-01-15 16:29:00,27.3,16.7,30.28,North,0,0.0,0.0,64,0.00,,,0.00,WUHU21623XXSP,2013-01-15 22:29:00,
2013-01-15 16:34:00,27.1,16.5,30.28,North,0,0.0,0.0,64,0.00,,,0.00,WUHU21623XXSP,2013-01-15 22:34:00,
2013-01-15 16:39:00,27.1,16.9,30.28,North,0,0.0,0.0,65,0.00,,,0.00,WUHU21623XXSP,2013-01-15 22:39:00,
2013-01-15 16:44:00,27.0,16.7,30.27,North,0,0.0,0.0,65,0.00,,,0.00,WUHU21623XXSP,2013-01-15 22:44:00,
2013-01-15 16:49:00,27.0,16.7,30.27,North,0,0.0,0.0,65,0.00,,,0.00,WUHU21623XXSP,2013-01-15 22:49:00,
2013-01-15 16:54:00,26.6,16.3,30.26,North,0,0.0,0.0,65,0.00,,,0.00,WUHU21623XXSP,2013-01-15 22:54:00,
2013-01-15 16:59:00,26.4,16.2,30.26,North,0,0.0,0.0,65,0.00,,,0.00,WUHU21623XXSP,2013-01-15 22:59:00,
2013-01-15 17:04:00,26.2,16.3,30.26,North,0,0.0,0.0,66,0.00,,,0.00,WUHU21623XXSP,2013-01-15 23:04:00,
2013-01-15 17:09:00,26.1,16.2,30.25,North,0,0.0,0.0,66,0.00,,,0.00,WUHU21623XXSP,2013-01-15 23:09:00,
2013-01-15 17:14:00,25.9,16.0,30.25,North,0,0.0,0.0,66,0.00,,,0.00,WUHU21623XXSP,2013-01-15 23:14:00,
2013-01-15 17:19:00,25.7,15.8,30.25,North,0,0.0,0.0,66,0.00,,,0.00,WUHU21623XXSP,2013-01-15 23:19:00,
2013-01-15 17:24:00,25.5,16.0,30.25,North,0,0.0,0.0,67,0.00,,,0.00,WUHU21623XXSP,2013-01-15 23:24:00,
2013-01-15 17:29:00,25.5,16.0,30.25,North,0,0.0,0.0,67,0.00,,,0.00,WUHU21623XXSP,2013-01-15 23:29:00,
2013-01-15 17:34:00,25.5,16.0,30.25,North,0,0.0,0.0,67,0.00,,,0.00,WUHU21623XXSP,2013-01-15 23:34:00,
2013-01-15 17:39:00,25.3,15.8,30.25,North,0,0.0,0.0,67,0.00,,,0.00,WUHU21623XXSP,2013-01-15 23:39:00,
2013-01-15 17:44:00,25.2,15.7,30.25,North,0,0.0,0.0,67,0.00,,,0.00,WUHU21623XXSP,2013-01-15 23:44:00,
2013-01-15 17:49:00,25.2,15.7,30.25,North,0,0.0,0.0,67,0.00,,,0.00,WUHU21623XXSP,2013-01-15 23:49:00,
2013-01-15 17:54:00,25.0,15.7,30.25,North,0,0.0,0.0,67,0.00,,,0.00,WUHU21623XXSP,2013-01-15 23:54:00,
2013-01-15 17:59:00,25.0,15.5,30.25,North,0,0.0,0.0,67,0.00,,,0.00,WUHU21623XXSP,2013-01-15 23:59:00,
2013-01-15 18:04:00,25.0,15.8,30.25,North,0,0.0,0.0,68,0.00,,,0.00,WUHU21623XXSP,2013-01-16 00:04:00,
2013-01-15 18:09:00,25.0,15.8,30.25,North,0,0.0,0.0,68,0.00,,,0.00,WUHU21623XXSP,2013-01-16 00:09:00,
2013-01-15 18:14:00,25.0,15.8,30.25,North,0,0.0,0.0,68,0.00,,,0.00,WUHU21623XXSP,2013-01-16 00:14:00,
2013-01-15 18:19:00,25.0,15.8,30.25,North,0,0.0,0.0,68,0.00,,,0.00,WUHU21623XXSP,2013-01-16 00:19:00,
2013-01-15 18:24:00,25.0,15.8,30.25,North,0,0.0,0.0,68,0.00,,,0.00,WUHU21623XXSP,2013-01-16 00:24:00,
2013-01-15 18:29:00,25.0,15.8,30.25,North,0,0.0,0.0,68,0.00,,,0.00,WUHU21623XXSP,2013-01-16 00:29:00,
2013-01-15 18:34:00,25.0,16.2,30.25,North,0,0.0,0.0,69,0.00,,,0.00,WUHU21623XXSP,2013-01-16 00:34:00,
2013-01-15 18:39:00,25.0,16.2,30.25,North,0,0.0,0.0,69,0.00,,,0.00,WUHU21623XXSP,2013-01-16 00:39:00,
2013-01-15 18:44:00,25.0,16.2,30.24,North,0,0.0,0.0,69,0.00,,,0.00,WUHU21623XXSP,2013-01-16 00:44:00,
2013-01-15 18:49:00,25.0,16.2,30.24,North,0,0.0,0.0,69,0.00,,,0.00,WUHU21623XXSP,2013-01-16 00:49:00,
2013-01-15 18:54:00,25.0,16.2,30.24,North,0,0.0,0.0,69,0.00,,,0.00,WUHU21623XXSP,2013-01-16 00:54:00,
2013-01-15 18:59:00,25.0,16.2,30.23,North,0,0.0,0.0,69,0.00,,,0.00,WUHU21623XXSP,2013-01-16 00:59:00,
2013-01-15 19:04:00,25.0,16.2,30.23,North,0,0.0,0.0,69,0.00,,,0.00,WUHU21623XXSP,2013-01-16 01:04:00,
2013-01-15 19:09:00,25.0,16.2,30.23,North,0,0.0,0.0,69,0.00,,,0.00,WUHU21623XXSP,2013-01-16 01:09:00,
2013-01-15 19:14:00,25.0,16.2,30.23,North,0,0.0,0.0,69,0.00,,,0.00,WUHU21623XXSP,2013-01-16 01:14:00,
2013-01-15 19:19:00,25.0,16.2,30.23,North,0,0.0,0.0,69,0.00,,,0.00,WUHU21623XXSP,2013-01-16 01:19:00,
2013-01-15 19:24:00,25.0,16.2,30.23,North,0,0.0,0.0,69,0.00,,,0.00,WUHU21623XXSP,2013-01-16 01:24:00,
2013-01-15 19:29:00,25.0,16.2,30.23,North,0,0.0,0.0,69,0.00,,,0.00,WUHU21623XXSP,2013-01-16 01:29:00,
2013-01-15 19:34:00,25.0,16.2,30.23,North,0,0.0,0.0,69,0.00,,,0.00,WUHU21623XXSP,2013-01-16 01:34:00,
2013-01-15 19:39:00,24.8,16.2,30.23,North,0,0.0,0.0,69,0.00,,,0.00,WUHU21623XXSP,2013-01-16 01:39:00,
2013-01-15 19:44:00,24.6,15.8,30.23,North,0,0.0,0.0,69,0.00,,,0.00,WUHU21623XXSP,2013-01-16 01:44:00,
2013-01-15 19:49:00,24.6,15.8,30.22,North,0,0.0,0.0,69,0.00,,,0.00,WUHU21623XXSP,2013-01-16 01:49:00,
2013-01-15 19:54:00,24.6,15.8,30.22,North,0,0.0,0.0,69,0.00,,,0.00,WUHU21623XXSP,2013-01-16 01:54:00,
2013-01-15 19:59:00,24.6,15.8,30.22,North,0,0.0,0.0,69,0.00,,,0.00,WUHU21623XXSP,2013-01-16 01:59:00,
2013-01-15 20:04:00,24.6,15.8,30.23,North,0,0.0,0.0,69,0.00,,,0.00,WUHU21623XXSP,2013-01-16 02:04:00,
2013-01-15 20:09:00,24.6,16.2,30.23,North,0,0.0,0.0,70,0.00,,,0.00,WUHU21623XXSP,2013-01-16 02:09:00,
2013-01-15 20:14:00,24.6,16.2,30.22,North,0,0.0,0.0,70,0.00,,,0.00,WUHU21623XXSP,2013-01-16 02:14:00,
2013-01-15 20:19:00,24.4,16.0,30.23,North,0,0.0,0.0,70,0.00,,,0.00,WUHU21623XXSP,2013-01-16 02:19:00,
2013-01-15 20:24:00,24.4,16.0,30.23,North,0,0.0,0.0,70,0.00,,,0.00,WUHU21623XXSP,2013-01-16 02:24:00,
2013-01-15 20:29:00,24.4,16.0,30.23,North,0,0.0,0.0,70,0.00,,,0.00,WUHU21623XXSP,2013-01-16 02:29:00,
2013-01-15 20:34:00,24.4,16.0,30.23,North,0,0.0,0.0,70,0.00,,,0.00,WUHU21623XXSP,2013-01-16 02:34:00,
2013-01-15 20:40:00,24.4,16.0,30.23,North,0,0.0,0.0,70,0.00,,,0.00,WUHU21623XXSP,2013-01-16 02:40:00,
2013-01-15 20:45:00,24.4,16.0,30.22,North,0,0.0,0.0,70,0.00,,,0.00,WUHU21623XXSP,2013-01-16 02:45:00,
2013-01-15 20:50:00,24.4,16.3,30.21,North,0,0.0,0.0,71,0.00,,,0.00,WUHU21623XXSP,2013-01-16 02:50:00,
2013-01-15 20:55:00,24.1,16.2,30.21,North,0,0.0,0.0,71,0.00,,,0.00,WUHU21623XXSP,2013-01-16 02:55:00,
2013-01-15 21:00:00,24.1,16.0,30.21,North,0,0.0,0.0,71,0.00,,,0.00,WUHU21623XXSP,2013-01-16 03:00:00,
2013-01-15 21:05:00,24.1,16.0,30.21,North,0,0.0,0.0,71,0.00,,,0.00,WUHU21623XXSP,2013-01-16 03:05:00,
2013-01-15 21:10:00,23.9,15.8,30.21,North,0,0.0,0.0,71,0.00,,,0.00,WUHU21623XXSP,2013-01-16 03:10:00,
2013-01-15 21:15:00,23.7,15.8,30.21,North,0,0.0,0.0,71,0.00,,,0.00,WUHU21623XXSP,2013-01-16 03:15:00,
2013-01-15 21:20:00,23.5,15.5,30.21,North,0,0.0,0.0,71,0.00,,,0.00,WUHU21623XXSP,2013-01-16 03:20:00,
2013-01-15 21:25:00,23.5,15.8,30.21,North,0,0.0,0.0,72,0.00,,,0.00,WUHU21623XXSP,2013-01-16 03:25:00,
2013-01-15 21:30:00,23.2,15.5,30.21,North,0,0.0,0.0,72,0.00,,,0.00,WUHU21623XXSP,2013-01-16 03:30:00,
2013-01-15 21:35:00,22.8,15.2,30.21,North,0,0.0,0.0,72,0.00,,,0.00,WUHU21623XXSP,2013-01-16 03:35:00,
2013-01-15 21:40:00,22.6,15.2,30.20,North,0,0.0,0.0,72,0.00,,,0.00,WUHU21623XXSP,2013-01-16 03:40:00,
2013-01-15 21:45:00,22.3,14.6,30.20,North,0,0.0,0.0,72,0.00,,,0.00,WUHU21623XXSP,2013-01-16 03:45:00,
2013-01-15 21:50:00,21.9,14.3,30.20,North,0,0.0,0.0,72,0.00,,,0.00,WUHU21623XXSP,2013-01-16 03:50:00,
2013-01-15 21:55:00,21.7,14.4,30.20,North,0,0.0,0.0,73,0.00,,,0.00,WUHU21623XXSP,2013-01-16 03:55:00,
2013-01-15 22:00:00,21.4,14.0,30.20,North,0,0.0,0.0,73,0.00,,,0.00,WUHU21623XXSP,2013-01-16 04:00:00,
2013-01-15 22:05:00,21.0,13.8,30.20,North,0,0.0,0.0,73,0.00,,,0.00,WUHU21623XXSP,2013-01-16 04:05:00,
2013-01-15 22:10:00,21.0,13.7,30.20,North,0,0.0,0.0,73,0.00,,,0.00,WUHU21623XXSP,2013-01-16 04:10:00,
2013-01-15 22:15:00,20.8,13.5,30.20,North,0,0.0,0.0,73,0.00,,,0.00,WUHU21623XXSP,2013-01-16 04:15:00,
2013-01-15 22:20:00,20.5,13.4,30.19,North,0,0.0,0.0,74,0.00,,,0.00,WUHU21623XXSP,2013-01-16 04:20:00,
2013-01-15 22:25:00,20.3,13.2,30.20,North,0,0.0,0.0,74,0.00,,,0.00,WUHU21623XXSP,2013-01-16 04:25:00,
2013-01-15 22:30:00,19.9,13.1,30.20,North,0,0.0,0.0,74,0.00,,,0.00,WUHU21623XXSP,2013-01-16 04:30:00,
2013-01-15 22:35:00,19.9,12.9,30.20,North,0,0.0,0.0,74,0.00,,,0.00,WUHU21623XXSP,2013-01-16 04:35:00,
2013-01-15 22:40:00,19.6,12.8,30.19,North,0,0.0,0.0,75,0.00,,,0.00,WUHU21623XXSP,2013-01-16 04:40:00,
2013-01-15 22:45:00,19.4,12.6,30.19,North,0,0.0,0.0,75,0.00,,,0.00,WUHU21623XXSP,2013-01-16 04:45:00,
2013-01-15 22:50:00,19.2,12.5,30.18,North,0,0.0,0.0,75,0.00,,,0.00,WUHU21623XXSP,2013-01-16 04:50:00,
2013-01-15 22:55:00,19.0,12.3,30.18,North,0,0.0,0.0,75,0.00,,,0.00,WUHU21623XXSP,2013-01-16 04:55:00,
2013-01-15 23:00:00,18.7,12.0,30.18,North,0,0.0,0.0,75,0.00,,,0.00,WUHU21623XXSP,2013-01-16 05:00:00,
2013-01-15 23:03:00,18.7,12.3,30.18,North,0,0.0,0.0,76,0.00,,,0.00,WUHU21623XXSP,2013-01-16 05:03:00,
2013-01-15 23:05:00,18.5,12.1,30.18,North,0,0.0,0.0,76,0.00,,,0.00,WUHU21623XXSP,2013-01-16 05:05:00,
2013-01-15 23:10:00,18.3,11.9,30.18,North,0,0.0,0.0,76,0.00,,,0.00,WUHU21623XXSP,2013-01-16 05:10:00,
2013-01-15 23:15:00,18.3,11.9,30.18,North,0,0.0,0.0,76,0.00,,,0.00,WUHU21623XXSP,2013-01-16 05:15:00,
2013-01-15 23:18:00,18.1,11.7,30.18,North,0,0.0,0.0,76,0.00,,,0.00,WUHU21623XXSP,2013-01-16 05:18:00,
2013-01-15 23:23:00,18.1,11.7,30.18,North,0,0.0,0.0,76,0.00,,,0.00,WUHU21623XXSP,2013-01-16 05:23:00,
2013-01-15 23:28:00,17.8,11.7,30.18,North,0,0.0,0.0,77,0.00,,,0.00,WUHU21623XXSP,2013-01-16 05:28:00,
2013-01-15 23:33:00,17.8,11.7,30.18,North,0,0.0,0.0,77,0.00,,,0.00,WUHU21623XXSP,2013-01-16 05:33:00,
2013-01-15 23:38:00,17.8,11.7,30.18,North,0,0.0,0.0,77,0.00,,,0.00,WUHU21623XXSP,2013-01-16 05:38:00,
2013-01-15 23:43:00,17.4,11.3,30.18,North,0,0.0,0.0,77,0.00,,,0.00,WUHU21623XXSP,2013-01-16 05:43:00,
2013-01-15 23:48:00,17.4,11.6,30.18,North,0,0.0,0.0,78,0.00,,,0.00,WUHU21623XXSP,2013-01-16 05:48:00,
2013-01-15 23:53:00,17.4,11.6,30.18,North,0,0.0,0.0,78,0.00,,,0.00,WUHU21623XXSP,2013-01-16 05:53:00,
2013-01-15 23:58:00,17.2,11.5,30.19,North,0,0.0,0.0,78,0.00,,,0.00,WUHU21623XXSP,2013-01-16 05:58:00,